Temp
81 81 78 71 59 58 56 62 69 70 67 73 74 71 66 66 65 56 70 75 75 74 77 80 82 83 83 83 83 83 83 83 83 83 83 82 83 83 83 83 83 83 84 83 83 83 83 83 83
79 80 74 64 54 50 55 65 63 69 72 74 72 71 66 62 71 67 69 74 75 75 75 78 81 82 82 83 83 83 82 83 83 83 83 83 82 83 83 83 83 83 83 83 83 83 83 83 83
80 81 65 57 53 51 55 66 66 69 75 75 71 72 69 64 71 70 72 74 75 73 74 77 82 82 83 81 82 83 83 83 83 82 83 83 83 83 83 83 83 83 82 83 83 83 83 83 83
77 70 66 56 52 59 61 65 67 69 74 74 71 65 71 74 73 74 75 75 74 73 75 80 82 83 83 82 82 83 83 82 83 83 83 83 83 83 82 83 83 82 83 83 83 83 82 83 83
77 67 58 57 57 61 65 69 68 66 69 72 71 62 64 71 75 74 74 75 73 72 74 78 82 83 82 81 83 83 83 83 81 83 83 83 82 83 83 83 83 84 83 83 83 83 83 83 84
65 64 57 53 58 62 66 69 68 67 71 70 67 63 62 72 72 73 74 72 74 72 73 76 82 82 82 83 83 83 83 83 81 81 83 83 82 83 83 84 84 83 83 83 83 83 83 84 83
64 57 55 56 59 61 65 68 67 69 69 68 72 60 64 69 72 73 73 72 72 73 72 72 74 79 82 83 83 83 83 83 83 82 83 81 81 83 84 83 84 84 84 83 83 82 83 83 82
65 60 56 56 56 60 68 68 70 70 71 76 75 61 59 68 73 72 71 70 70 71 72 71 72 73 74 77 82 82 83 83 83 81 83 82 83 82 82 82 84 84 84 84 83 82 81 81 81
72 56 53 58 58 61 69 69 71 78 73 75 75 69 71 72 72 69 68 68 68 70 69 70 71 72 73 73 75 80 83 83 81 80 83 78 75 75 79 82 84 84 84 84 83 82 81 80 79
64 55 60 67 66 65 68 69 72 73 70 69 68 71 72 72 70 67 66 67 67 67 69 70 70 71 72 75 72 72 73 72 71 73 74 73 74 75 78 80 83 84 84 83 82 82 80 77 74
67 61 67 69 71 69 68 67 71 70 65 69 66 67 70 69 68 67 66 67 66 68 70 70 70 71 71 71 70 70 71 71 70 72 72 73 74 75 74 74 76 76 79 76 78 77 75 74 73
64 71 68 67 72 70 66 73 68 70 72 75 72 71 70 68 67 67 67 67 67 68 70 70 70 70 70 71 70 71 72 72 71 72 72 71 71 73 73 74 75 75 75 75 75 74 74 74 74
66 70 70 71 70 69 71 66 68 72 77 77 74 72 70 69 69 69 70 69 68 67 69 69 70 70 70 70 70 71 70 71 72 72 72 72 72 73 73 74 74 74 74 74 74 72 74 74 74
69 68 68 69 68 69 66 66 70 72 77 74 72 70 70 70 70 69 69 68 67 68 68 70 70 70 70 70 71 71 70 70 72 71 72 72 73 72 73 73 73 73 72 74 73 72 72 73 74
69 64 66 66 66 66 69 61 65 72 75 72 71 70 71 72 72 70 70 69 69 68 69 69 69 71 70 70 71 70 73 72 73 72 72 72 74 74 74 72 70 70 72 74 72 73 73 74 74
63 63 55 65 67 66 66 56 64 68 72 70 70 71 72 72 73 73 73 72 70 69 68 69 75 72 70 69 70 71 73 73 74 74 72 75 76 75 74 73 73 70 72 73 72 72 72 72 71
58 52 56 60 68 65 62 57 67 70 70 68 70 70 71 72 73 73 74 73 72 70 70 69 71 70 70 70 70 70 72 70 73 73 72 74 76 76 72 73 73 72 72 72 72 72 72 71 72
52 52 59 57 64 64 59 58 65 68 67 67 68 70 71 72 73 74 74 74 73 71 71 70 70 71 70 70 70 71 71 72 72 72 73 76 76 76 73 74 74 74 72 71 71 73 71 71 70
58 56 58 63 68 62 59 59 63 66 65 67 66 67 69 71 74 73 74 75 74 72 70 70 69 69 69 69 69 70 70 71 72 72 74 75 76 75 74 75 75 74 72 71 72 70 71 69 69
60 58 58 63 68 62 59 59 63 64 66 68 68 67 67 69 69 70 72 73 73 72 71 70 70 70 70 70 70 71 71 71 73 73 74 75 76 76 75 74 75 74 73 73 72 73 69 69 69
57 57 59 59 63 63 60 56 59 64 66 68 69 69 68 68 67 67 69 71 74 72 71 71 71 70 70 71 70 70 71 72 72 72 74 75 76 77 78 75 74 73 73 72 73 73 71 69 70
52 65 66 62 56 50 59 46 55 58 60 64 68 69 69 69 69 70 72 69 72 74 73 72 72 71 71 71 70 70 69 69 71 72 73 74 76 77 78 76 75 74 72 73 73 74 72 71 70
61 68 65 62 55 52 54 48 53 55 55 61 66 68 70 71 72 70 72 74 74 73 74 73 71 71 71 71 70 69 69 70 71 71 72 73 74 76 77 76 74 73 72 73 74 74 72 72 71
68 63 59 54 51 45 51 52 51 53 57 61 64 68 70 70 72 73 74 74 71 72 74 73 71 71 71 70 70 70 70 69 69 70 72 72 72 74 75 76 75 73 72 72 72 75 75 74 73
60 51 42 42 42 43 45 50 55 61 65 66 66 67 70 71 70 69 72 70 70 71 72 73 71 70 70 71 70 70 70 69 70 70 70 71 72 72 73 74 74 74 74 75 74 74 75 76 75
56 52 46 40 39 45 49 47 57 65 67 67 69 70 69 69 70 69 70 70 71 73 72 73 71 72 70 71 71 70 71 69 69 70 69 71 72 73 75 74 74 75 76 75 75 74 74 76 76
56 52 55 46 41 45 48 55 63 64 64 66 66 66 67 69 69 69 69 70 71 71 71 72 71 73 71 71 71 71 71 70 70 70 70 70 72 74 74 75 74 75 75 75 75 74 74 76 75
63 63 52 47 42 40 45 48 51 59 63 65 64 64 65 68 70 70 68 69 70 71 72 71 72 72 71 72 72 73 72 72 71 70 70 70 72 73 74 74 75 75 75 76 74 74 75 75 75
58 53 50 50 47 43 42 51 59 61 65 64 66 65 65 67 69 70 69 69 72 72 70 72 71 71 71 71 71 72 72 72 72 71 71 72 73 73 73 74 74 74 75 75 74 74 75 74 75
59 56 54 50 46 43 45 53 66 65 66 67 67 67 66 68 70 70 69 68 68 68 69 69 69 70 72 72 71 71 72 72 72 72 72 73 73 73 73 73 72 73 73 74 73 74 77 74 75
MSLP
1010.01 1010.25 1010.61 1010.98 1011.75 1011.61 1011.82 1011.42 1010.91 1010.28 1010.68 1010.76 1010.85 1011.34 1012.09 1012.70 1012.95 1014.05 1013.40 1013.48 1013.47 1013.79 1013.89 1014.12 1014.32 1014.60 1014.73 1014.98 1015.15 1015.32 1015.55 1015.76 1015.98 1016.11 1016.14 1016.14 1016.27 1016.21 1016.03 1016.10 1016.33 1016.51 1016.57 1016.67 1016.87 1016.88 1017.07 1017.10 1017.25
1010.04 1010.41 1010.75 1011.16 1011.96 1012.39 1012.35 1011.74 1011.14 1010.47 1011.11 1011.17 1011.33 1011.71 1012.30 1012.87 1012.99 1013.51 1013.77 1013.76 1013.67 1013.92 1014.09 1014.23 1014.46 1014.69 1014.91 1015.20 1015.44 1015.60 1015.73 1016.00 1016.17 1016.27 1016.29 1016.37 1016.59 1016.44 1016.26 1016.48 1016.62 1016.77 1016.81 1016.95 1017.06 1017.11 1017.03 1017.22 1017.31
1010.29 1010.37 1011.05 1011.76 1012.54 1012.79 1012.42 1011.84 1011.77 1011.41 1011.03 1011.09 1011.65 1011.98 1012.48 1013.10 1013.28 1013.47 1013.47 1013.83 1013.95 1014.31 1014.47 1014.47 1014.61 1014.79 1015.10 1015.25 1015.44 1015.75 1015.92 1016.17 1016.28 1016.37 1016.41 1016.63 1016.72 1016.63 1016.68 1016.77 1016.89 1017.09 1016.97 1017.12 1017.17 1017.23 1017.16 1017.29 1017.54
1010.22 1010.86 1011.63 1011.99 1012.90 1012.85 1012.47 1012.03 1011.92 1011.47 1011.17 1011.37 1011.96 1012.54 1012.96 1013.18 1013.07 1013.24 1013.71 1013.98 1014.33 1014.62 1014.60 1014.60 1014.72 1014.91 1015.20 1015.54 1015.62 1015.90 1016.13 1016.30 1016.29 1016.46 1016.64 1016.79 1016.82 1016.87 1016.97 1017.12 1017.18 1017.21 1017.21 1017.32 1017.34 1017.36 1017.21 1017.28 1017.37
1010.25 1010.98 1011.87 1012.45 1012.92 1012.81 1012.48 1012.19 1012.11 1011.86 1011.65 1011.84 1012.18 1013.04 1013.46 1013.65 1013.39 1013.50 1013.93 1014.29 1014.49 1014.85 1014.84 1014.80 1014.90 1015.05 1015.38 1015.77 1015.87 1016.05 1016.24 1016.29 1016.50 1016.72 1016.86 1016.94 1016.91 1017.06 1017.13 1017.20 1017.46 1017.24 1017.37 1017.53 1017.37 1017.23 1017.34 1017.39 1017.37
1010.62 1011.43 1012.40 1012.78 1012.67 1012.56 1012.38 1012.05 1011.92 1011.74 1011.76 1012.16 1012.63 1013.13 1013.99 1014.04 1013.88 1014.05 1014.34 1014.66 1014.72 1015.06 1015.29 1015.16 1015.16 1015.30 1015.58 1015.75 1015.95 1016.15 1016.23 1016.34 1016.86 1017.01 1016.99 1017.03 1017.15 1017.09 1017.37 1017.35 1017.27 1017.49 1017.58 1017.76 1017.63 1017.67 1017.56 1017.42 1017.66
1011.02 1012.06 1012.74 1012.90 1012.42 1012.17 1011.92 1011.97 1011.82 1011.73 1011.84 1012.02 1012.59 1013.49 1014.18 1014.28 1014.23 1014.38 1014.69 1014.96 1015.10 1015.28 1015.42 1015.59 1015.46 1015.38 1015.61 1015.79 1016.02 1016.17 1016.33 1016.61 1016.95 1017.16 1017.06 1017.16 1017.36 1017.41 1017.37 1017.43 1017.57 1017.76 1017.82 1017.91 1017.78 1017.87 1017.69 1017.80 1017.93
1011.07 1012.08 1012.64 1012.63 1012.35 1011.94 1011.60 1011.51 1011.68 1011.51 1011.61 1011.77 1012.42 1013.25 1013.98 1014.16 1014.39 1014.66 1015.07 1015.34 1015.40 1015.50 1015.43 1015.65 1015.66 1015.73 1015.88 1015.96 1016.01 1016.17 1016.32 1016.66 1016.94 1017.23 1017.12 1017.34 1017.41 1017.47 1017.43 1017.64 1017.77 1017.93 1017.97 1017.90 1017.93 1018.10 1018.01 1017.90 1017.99
1010.98 1011.99 1012.45 1012.11 1012.07 1011.71 1011.53 1011.38 1011.55 1011.13 1011.57 1011.88 1012.46 1012.91 1013.18 1013.97 1014.47 1014.94 1015.36 1015.71 1015.76 1015.85 1015.94 1015.92 1015.93 1015.92 1015.99 1016.12 1016.28 1016.22 1016.43 1016.75 1017.23 1017.39 1017.37 1017.71 1017.97 1017.98 1017.89 1017.84 1017.85 1018.05 1017.96 1017.99 1018.17 1018.27 1018.31 1018.36 1018.23
1011.12 1011.81 1011.54 1011.25 1011.34 1011.43 1011.52 1011.42 1011.19 1011.20 1011.68 1012.30 1012.89 1013.37 1013.55 1014.13 1014.66 1015.11 1015.55 1015.93 1016.01 1016.07 1016.11 1016.21 1016.26 1016.27 1016.36 1016.44 1016.77 1016.66 1016.95 1017.35 1017.69 1017.80 1017.87 1018.15 1018.30 1018.28 1018.15 1018.02 1017.95 1018.04 1017.87 1018.02 1018.09 1018.16 1018.28 1018.39 1018.55
1010.99 1011.16 1011.07 1010.91 1010.97 1011.11 1011.28 1011.43 1011.62 1011.29 1011.90 1012.22 1012.67 1013.39 1013.96 1014.39 1015.00 1015.30 1015.78 1016.06 1016.18 1016.17 1016.34 1016.41 1016.42 1016.54 1016.69 1016.95 1017.09 1017.12 1017.32 1017.60 1017.95 1018.08 1018.22 1018.43 1018.60 1018.63 1018.50 1018.42 1018.36 1018.18 1017.95 1018.07 1018.08 1018.11 1018.14 1018.24 1018.49
1010.77 1010.84 1010.96 1010.97 1010.94 1011.22 1011.46 1011.46 1011.43 1011.54 1011.54 1011.66 1012.65 1013.25 1013.86 1014.47 1015.05 1015.35 1015.66 1016.01 1016.22 1016.30 1016.57 1016.64 1016.48 1016.67 1016.89 1017.05 1017.34 1017.40 1017.61 1017.91 1018.28 1018.24 1018.40 1018.49 1018.82 1018.92 1018.70 1018.44 1018.38 1018.21 1018.08 1017.83 1017.92 1017.73 1017.82 1017.95 1018.20
1010.80 1010.83 1011.01 1011.03 1011.28 1011.61 1011.55 1012.07 1011.88 1011.59 1011.31 1011.95 1012.69 1013.59 1013.94 1014.54 1014.93 1015.23 1015.53 1015.92 1016.34 1016.47 1016.68 1016.79 1016.75 1016.91 1017.02 1017.18 1017.42 1017.57 1017.97 1018.39 1018.51 1018.54 1018.63 1018.85 1018.76 1018.66 1018.54 1018.44 1018.32 1018.27 1018.03 1017.67 1017.73 1017.60 1017.71 1017.65 1017.74
1011.10 1011.21 1011.44 1011.63 1011.64 1011.86 1011.98 1012.34 1011.95 1011.84 1011.70 1012.20 1012.92 1013.54 1013.81 1014.22 1014.59 1015.03 1015.45 1015.80 1016.20 1016.43 1016.66 1016.86 1016.98 1017.00 1017.11 1017.36 1017.52 1017.81 1018.15 1018.34 1018.55 1018.57 1018.66 1018.58 1018.52 1018.23 1018.31 1018.39 1018.28 1018.12 1017.76 1017.44 1017.71 1017.83 1017.61 1017.77 1017.71
1011.35 1011.60 1011.72 1011.95 1012.10 1012.27 1012.31 1012.76 1012.32 1012.10 1012.04 1012.46 1012.99 1013.52 1013.81 1013.93 1014.26 1014.52 1015.07 1015.54 1015.92 1016.16 1016.56 1016.77 1017.00 1017.03 1017.30 1017.39 1017.61 1017.87 1018.04 1018.32 1018.38 1018.36 1018.71 1018.39 1018.11 1017.87 1018.09 1018.33 1018.24 1018.21 1017.96 1017.76 1017.71 1017.54 1017.67 1017.85 1018.07
1011.54 1011.83 1011.94 1011.92 1012.04 1012.27 1012.49 1012.63 1012.52 1012.27 1012.28 1012.40 1012.89 1013.39 1013.69 1013.87 1014.04 1014.46 1014.88 1015.17 1015.76 1016.11 1016.54 1016.84 1016.95 1017.12 1017.38 1017.53 1017.86 1017.91 1018.05 1018.09 1018.20 1018.32 1018.36 1017.99 1017.76 1017.93 1018.02 1018.15 1018.15 1018.18 1018.10 1017.95 1017.67 1018.35 1018.66 1018.51 1018.63
1012.02 1012.07 1011.97 1012.02 1011.76 1011.95 1012.66 1012.58 1012.03 1012.17 1012.49 1012.57 1012.82 1013.08 1013.40 1013.69 1013.83 1013.97 1014.56 1014.87 1015.39 1015.87 1016.27 1016.75 1016.93 1017.11 1017.26 1017.36 1017.71 1018.01 1018.17 1018.39 1018.10 1017.93 1017.86 1017.68 1017.79 1018.07 1018.24 1018.12 1018.12 1018.18 1018.23 1018.08 1018.12 1018.58 1018.94 1018.85 1018.77
1011.97 1011.93 1011.68 1011.51 1011.64 1011.96 1012.46 1012.29 1012.10 1012.07 1012.39 1012.62 1012.80 1013.05 1013.04 1013.11 1013.09 1013.52 1014.15 1014.60 1015.07 1015.73 1016.14 1016.54 1016.85 1017.15 1017.40 1017.40 1017.61 1017.78 1017.87 1017.88 1017.95 1017.88 1017.77 1017.69 1017.83 1018.08 1018.20 1018.17 1018.07 1018.25 1018.52 1018.54 1018.55 1018.75 1019.07 1019.19 1019.24
1011.22 1011.39 1011.36 1011.06 1010.98 1011.61 1011.97 1012.15 1011.96 1011.91 1012.14 1012.21 1012.49 1012.64 1012.47 1012.31 1012.51 1013.16 1013.74 1014.31 1014.85 1015.52 1016.11 1016.44 1016.83 1017.13 1017.40 1017.60 1017.83 1018.01 1017.88 1017.77 1017.81 1017.75 1017.73 1017.75 1017.74 1018.03 1018.12 1018.15 1018.04 1018.34 1018.67 1018.58 1018.50 1019.12 1019.35 1019.50 1019.70
1010.91 1011.07 1011.13 1011.05 1011.10 1011.83 1011.99 1011.83 1011.69 1011.60 1011.51 1011.41 1011.87 1011.95 1012.08 1012.28 1012.66 1013.06 1013.50 1013.94 1014.47 1014.99 1015.63 1016.25 1016.55 1016.96 1017.27 1017.25 1017.35 1017.50 1017.50 1017.59 1017.63 1017.55 1017.75 1017.77 1017.72 1017.96 1018.06 1018.31 1018.27 1018.28 1018.76 1018.95 1018.97 1019.08 1019.52 1019.53 1019.79
1010.55 1010.53 1010.61 1011.05 1011.53 1012.14 1012.18 1011.75 1011.11 1010.87 1010.83 1010.82 1011.05 1011.22 1011.59 1011.82 1012.25 1012.86 1013.27 1013.48 1013.91 1014.51 1015.07 1015.61 1016.16 1016.55 1016.88 1017.11 1017.27 1017.53 1017.52 1017.45 1017.73 1017.72 1017.80 1017.72 1017.68 1017.87 1017.83 1018.20 1018.35 1018.49 1018.63 1018.83 1019.00 1019.01 1019.15 1019.48 1019.67
1010.00 1009.50 1009.96 1011.06 1011.88 1012.38 1012.36 1012.40 1011.02 1010.61 1010.57 1010.38 1010.33 1010.55 1011.03 1011.56 1011.87 1012.33 1012.65 1013.06 1013.53 1013.80 1014.58 1015.13 1015.59 1016.10 1016.42 1016.83 1017.15 1017.37 1017.38 1017.59 1017.52 1017.52 1017.49 1017.66 1017.67 1017.71 1017.76 1018.06 1018.28 1018.35 1018.60 1018.75 1019.01 1019.00 1019.05 1019.31 1019.51
1008.92 1009.03 1009.98 1011.16 1012.11 1012.69 1012.84 1013.07 1010.80 1010.58 1010.36 1009.69 1009.57 1009.92 1010.31 1010.82 1011.17 1011.56 1011.78 1012.15 1012.81 1013.44 1014.05 1014.55 1015.22 1015.66 1016.06 1016.45 1016.65 1017.15 1017.42 1017.34 1017.34 1017.51 1017.59 1017.69 1017.60 1017.60 1017.70 1017.92 1018.21 1018.49 1018.77 1018.63 1018.89 1018.90 1018.97 1019.19 1019.42
1008.63 1009.88 1011.03 1012.23 1012.97 1013.42 1012.37 1012.52 1010.37 1009.96 1008.99 1008.50 1008.61 1009.03 1009.36 1009.92 1010.61 1011.00 1011.49 1011.97 1012.47 1013.11 1013.76 1014.33 1014.89 1015.26 1015.71 1016.03 1016.49 1016.75 1017.13 1017.20 1017.36 1017.55 1017.62 1017.66 1017.74 1017.67 1017.71 1017.68 1017.91 1018.27 1018.37 1018.43 1018.56 1018.66 1018.75 1018.74 1018.97
1008.69 1010.33 1012.19 1013.39 1013.95 1013.50 1012.37 1012.35 1009.63 1008.37 1007.97 1007.49 1007.48 1008.00 1008.50 1009.22 1010.10 1010.66 1011.11 1011.71 1012.35 1012.82 1013.27 1013.92 1014.43 1015.02 1015.33 1015.64 1016.08 1016.39 1016.77 1016.96 1017.19 1017.33 1017.46 1017.58 1017.71 1017.61 1017.38 1017.45 1017.72 1018.07 1017.96 1017.98 1018.11 1018.37 1018.48 1018.54 1018.65
1008.39 1009.46 1011.15 1012.51 1013.61 1013.05 1012.37 1011.21 1008.39 1007.53 1007.11 1006.90 1006.85 1007.42 1008.25 1008.92 1009.56 1010.08 1010.45 1011.20 1011.79 1012.37 1013.03 1013.53 1013.99 1014.47 1014.93 1015.35 1015.61 1015.91 1016.32 1016.62 1016.80 1017.07 1017.30 1017.37 1017.40 1017.19 1016.98 1017.19 1017.30 1017.54 1017.65 1017.75 1017.80 1018.18 1018.36 1018.38 1018.51
1008.12 1009.24 1009.72 1011.63 1012.90 1012.77 1011.62 1010.04 1007.92 1007.18 1007.01 1007.14 1007.16 1007.68 1008.09 1008.56 1009.13 1009.69 1010.36 1010.77 1011.39 1011.98 1012.61 1013.13 1013.59 1013.92 1014.34 1014.72 1015.17 1015.52 1015.92 1016.31 1016.42 1016.63 1016.88 1016.97 1017.08 1016.93 1016.80 1016.76 1017.04 1017.07 1017.27 1017.38 1017.59 1017.82 1018.01 1018.21 1018.38
1006.53 1007.81 1009.68 1011.17 1012.52 1012.72 1011.55 1010.19 1008.31 1007.21 1007.03 1007.04 1007.40 1007.69 1008.24 1008.54 1009.16 1009.73 1010.30 1010.70 1011.12 1011.60 1012.29 1012.81 1013.27 1013.45 1013.67 1014.31 1014.79 1015.11 1015.35 1015.70 1015.88 1016.32 1016.50 1016.53 1016.62 1016.65 1016.55 1016.57 1016.73 1016.98 1017.15 1017.11 1017.41 1017.56 1017.69 1017.90 1017.93
1006.77 1007.69 1009.35 1010.68 1011.65 1012.02 1011.28 1009.51 1006.74 1006.60 1006.54 1006.83 1007.00 1007.38 1007.80 1008.29 1008.87 1009.39 1009.90 1010.39 1010.69 1011.44 1012.22 1012.60 1012.98 1013.30 1013.57 1013.92 1014.28 1014.67 1014.96 1015.19 1015.41 1015.72 1015.95 1016.12 1016.38 1016.43 1016.43 1016.47 1016.63 1016.82 1016.94 1017.11 1017.36 1017.39 1017.52 1017.69 1017.70
1005.63 1006.46 1007.91 1010.12 1011.57 1011.74 1010.70 1008.15 1005.95 1006.18 1006.25 1006.38 1006.55 1006.98 1007.49 1008.02 1008.61 1009.11 1009.68 1010.57 1011.11 1011.56 1012.05 1012.32 1012.62 1012.83 1012.96 1013.21 1013.61 1013.93 1014.28 1014.80 1015.12 1015.27 1015.48 1015.62 1015.68 1016.10 1016.23 1016.36 1016.33 1016.54 1016.70 1016.83 1017.05 1017.21 1017.25 1017.49 1017.54
Wind_Speed
5 5 3 2 4 4 2 6 2 4 6 4 3 3 5 3 2 3 3 3 9 8 5 7 9 10 12 10 10 9 8 9 10 10 10 10 11 11 10 9 10 9 8 8 10 10 10 9 8
4 4 1 2 5 3 1 4 10 11 9 6 4 4 4 2 4 4 4 4 6 6 5 6 9 10 10 12 10 8 9 9 9 10 10 8 9 9 8 8 12 9 9 9 9 9 9 9 8
5 1 3 4 2 4 3 3 6 7 3 3 3 5 3 2 5 4 3 8 7 6 4 5 10 10 9 9 10 8 8 9 9 10 10 8 9 8 8 10 11 10 10 9 8 7 8 8 7
3 3 3 4 2 1 1 2 4 7 1 7 4 4 3 4 5 5 8 10 8 6 5 6 10 10 9 8 9 9 7 7 9 9 9 9 8 8 9 12 11 10 9 9 7 5 5 6 6
1 2 3 3 2 1 3 4 2 6 6 4 2 2 3 3 6 9 8 8 8 6 5 5 9 10 9 8 9 9 7 7 8 9 7 7 8 9 11 12 11 9 8 8 6 3 4 4 6
3 3 3 1 3 3 2 1 3 2 3 3 3 4 2 3 4 5 6 6 4 5 1 3 9 8 8 8 8 8 7 6 8 7 8 6 8 9 11 11 10 9 7 7 7 5 4 7 5
4 3 1 2 3 4 5 4 0 1 3 1 4 4 1 2 5 7 7 7 6 5 5 2 3 6 9 8 8 9 8 7 8 8 10 8 11 10 11 9 9 8 7 6 8 6 6 4 4
4 4 1 3 2 2 4 3 1 1 2 4 6 4 5 4 9 8 7 5 5 5 5 3 3 4 3 1 8 9 8 9 9 9 12 7 8 8 10 7 9 6 6 6 8 7 9 7 7
2 4 1 3 3 2 4 2 4 2 6 2 1 4 5 13 11 8 6 3 4 4 4 4 3 2 2 3 2 7 10 9 10 9 9 7 4 4 5 7 6 5 4 4 7 7 10 10 6
4 3 4 3 4 4 5 3 3 3 4 2 3 8 13 11 9 8 5 5 3 3 2 3 3 4 4 2 4 4 7 6 4 4 5 4 3 1 5 5 2 2 3 4 5 6 7 5 1
3 2 1 1 5 6 5 3 1 4 4 5 8 11 10 10 6 6 4 3 2 2 2 3 3 4 4 3 2 2 2 4 3 5 5 4 3 2 2 2 2 1 3 1 2 3 2 3 1
1 3 2 0 4 4 7 4 3 4 3 7 8 12 9 9 6 6 6 5 4 4 3 3 4 3 4 3 3 3 3 3 3 2 4 4 1 1 2 1 1 1 1 3 1 2 3 3 3
1 2 4 7 7 6 8 5 2 5 7 12 11 9 9 6 6 5 5 5 4 4 3 4 4 4 4 4 3 3 3 3 3 3 3 1 3 2 1 1 0 0 2 2 3 4 2 3 5
2 4 5 5 6 3 4 3 2 2 5 12 11 9 9 9 9 5 6 6 6 5 5 5 4 4 5 4 4 3 3 3 3 2 1 4 4 3 2 2 3 2 4 1 3 2 5 4 5
1 4 4 2 3 3 6 4 5 2 6 11 11 7 7 8 8 9 8 7 7 5 5 6 5 5 5 5 4 3 3 3 2 2 3 6 4 1 3 3 3 3 2 2 4 5 6 5 6
2 2 2 3 5 4 0 3 6 12 8 12 11 9 9 9 9 6 8 7 7 5 6 5 6 6 6 5 4 3 3 2 3 3 2 5 2 1 4 3 2 3 3 0 1 3 3 3 2
5 1 1 3 8 6 2 3 11 13 6 7 10 10 9 9 8 8 9 9 8 7 6 6 5 5 5 5 2 3 3 4 3 3 2 3 1 1 3 3 3 4 3 2 1 1 1 2 2
4 2 3 4 7 6 7 9 4 8 5 5 6 8 11 13 15 9 9 9 7 7 6 5 4 4 4 3 2 0 1 2 2 3 3 3 2 2 3 3 4 3 3 2 2 1 2 2 3
2 3 4 2 5 6 9 6 10 8 7 8 8 7 9 15 8 8 9 9 8 8 7 7 6 5 4 2 2 0 2 1 1 3 4 3 3 3 2 3 3 4 4 4 4 2 1 2 2
4 4 3 2 1 3 3 12 7 8 12 14 11 8 9 5 8 8 9 10 11 10 10 7 7 6 4 3 2 2 2 2 1 2 2 4 4 4 3 4 3 3 4 5 5 2 2 1 1
4 6 5 3 4 1 3 7 6 6 6 10 9 7 7 12 10 8 10 12 11 10 11 11 9 8 6 5 3 2 1 2 2 1 2 3 4 3 2 3 3 4 2 3 3 3 3 2 2
7 9 7 10 4 2 2 6 7 5 7 10 12 12 10 10 9 10 13 10 12 11 8 8 9 8 7 8 4 4 4 3 3 3 2 3 3 3 2 3 2 3 2 2 2 2 2 2 2
11 7 8 4 4 3 2 2 8 2 6 14 14 13 12 12 14 14 16 15 12 10 11 10 8 7 6 7 6 5 4 2 2 1 3 3 2 3 2 3 3 3 2 2 3 3 3 2 2
6 8 9 6 3 2 2 6 9 5 7 6 7 15 15 13 12 12 12 9 9 7 9 9 10 9 8 8 7 7 7 5 3 2 3 3 2 2 4 4 4 4 4 4 3 2 3 3 3
6 7 4 4 2 7 1 4 12 4 7 9 11 14 16 14 12 10 13 11 11 12 11 10 11 9 10 10 8 8 7 7 6 5 4 4 2 3 5 5 4 3 4 3 3 3 3 2 2
7 8 8 6 5 5 3 6 8 1 5 5 6 10 10 12 12 13 13 12 13 12 11 11 10 10 10 10 10 7 6 4 4 5 4 4 3 4 4 5 5 6 5 4 3 2 3 3 3
4 3 5 8 3 2 3 8 9 3 2 3 5 8 12 13 13 14 11 11 11 9 10 11 10 10 10 12 8 8 6 6 6 7 5 4 4 4 5 6 5 5 5 5 5 4 3 2 2
8 8 4 3 4 3 5 6 7 3 5 4 5 8 7 7 8 9 9 10 9 6 6 7 6 9 7 8 8 7 8 7 6 5 6 5 4 5 5 6 5 6 6 5 5 3 3 3 2
3 2 6 6 4 6 1 7 8 7 6 7 8 8 9 10 11 10 10 10 10 9 6 7 8 7 7 7 6 7 8 8 6 6 6 6 4 5 5 5 5 6 5 5 4 4 4 4 3
3 6 7 7 5 1 3 8 1 4 5 6 9 7 6 8 10 10 10 8 6 7 8 8 7 8 8 8 7 8 7 6 6 7 7 6 6 5 6 4 4 4 5 5 6 6 6 6 6
Wind_Direction
149 133 160 75 55 61 39 353 276 38 14 358 47 102 127 41 82 196 354 137 129 137 151 145 151 154 140 133 135 137 138 122 114 113 114 119 120 125 139 143 118 110 99 94 91 97 96 99 103
143 168 55 69 80 73 322 11 47 101 123 107 66 86 58 82 87 104 108 131 122 129 134 137 163 151 158 148 146 145 138 130 120 122 121 123 120 124 129 123 103 110 103 95 97 98 103 100 100
145 307 79 84 89 129 158 63 28 337 182 280 109 47 71 82 100 154 132 126 115 113 123 156 156 159 162 155 149 146 140 136 127 129 134 135 137 140 129 116 113 105 101 110 105 102 99 96 109
162 22 36 82 85 305 7 11 19 350 291 72 94 58 61 349 145 139 129 129 123 130 143 167 159 161 168 159 158 154 153 140 134 123 124 132 138 143 127 114 106 114 108 106 99 108 111 129 136
86 76 56 80 100 206 263 311 330 321 313 53 62 110 35 36 82 108 121 132 140 145 164 153 163 165 160 162 161 156 162 160 134 134 129 120 146 133 121 116 120 120 107 98 105 123 122 147 136
42 76 48 237 174 176 228 320 356 341 17 131 85 83 17 106 76 98 93 95 91 129 146 170 166 163 162 162 160 159 164 171 135 144 136 126 130 137 129 119 127 111 109 96 82 78 112 133 135
103 78 103 282 231 161 185 133 269 215 140 112 131 83 117 148 106 96 93 89 90 100 99 68 31 187 168 178 172 180 168 157 144 151 126 131 146 132 122 128 126 123 98 89 86 83 79 94 54
109 90 69 257 232 324 153 145 178 347 90 83 162 180 187 165 117 96 86 93 95 84 95 114 101 107 127 102 193 168 155 159 153 153 137 127 105 126 117 117 115 115 108 100 92 97 86 86 76
119 65 239 248 162 192 132 143 191 256 135 177 69 146 140 125 113 102 99 81 90 91 80 74 93 99 141 134 287 174 152 151 132 128 142 78 64 63 74 83 112 123 117 106 107 100 68 69 48
92 113 232 200 174 134 145 77 6 166 129 51 56 80 119 130 135 130 141 151 141 154 152 97 82 77 54 62 72 71 82 99 91 99 84 58 65 57 65 47 91 72 109 119 112 90 77 52 13
164 226 287 266 139 135 129 31 220 142 195 194 180 153 141 137 140 135 141 145 197 194 145 129 108 72 69 85 82 77 103 105 94 66 65 49 42 30 54 36 16 24 17 11 57 87 147 175 138
118 34 198 152 153 131 140 130 177 210 202 141 151 152 145 155 161 160 167 178 170 192 169 153 133 119 97 99 109 102 95 86 87 57 63 44 347 72 81 72 5 9 347 317 39 227 208 164 158
40 135 54 91 83 59 103 70 288 195 127 118 133 159 156 164 172 166 171 154 153 207 175 180 151 143 123 109 117 104 93 97 98 77 62 228 245 148 135 84 117 356 253 254 249 244 166 100 42
9 100 105 59 101 75 90 36 6 33 136 137 155 178 174 181 188 151 175 171 181 200 199 180 178 144 140 147 140 121 108 105 96 91 237 267 259 232 130 124 162 208 250 288 268 354 30 34 20
292 91 92 154 121 120 108 15 215 342 163 161 175 190 189 208 192 182 181 189 181 205 188 191 186 155 155 147 134 135 145 127 101 265 240 263 252 202 112 126 165 203 251 69 321 0 10 1 10
42 60 105 205 166 176 273 249 244 223 201 182 178 189 201 217 223 186 170 187 175 172 187 187 200 170 164 158 152 168 153 208 217 219 246 276 2 57 100 121 162 174 126 281 267 354 354 4 3
8 317 242 196 204 140 193 240 206 225 212 220 187 190 206 210 220 200 168 179 182 176 177 190 209 182 176 153 161 185 198 209 239 247 245 315 326 82 109 109 137 171 131 192 292 26 350 356 1
253 250 251 215 206 169 183 243 255 225 215 188 180 205 215 213 212 191 166 170 177 158 182 194 193 188 176 127 126 248 257 254 227 245 254 210 200 145 155 124 158 158 150 197 216 206 35 9 34
218 203 238 253 181 167 211 232 221 224 215 226 218 227 223 210 194 163 168 169 167 156 170 204 179 201 162 151 146 178 234 260 223 208 197 192 188 175 179 111 143 142 155 195 174 122 160 73 32
243 234 227 340 355 178 219 250 221 190 215 220 223 218 202 190 171 170 166 175 180 176 174 184 199 176 184 169 161 164 174 165 179 165 190 177 200 190 212 134 141 140 147 164 167 159 139 54 121
243 217 178 155 101 284 291 281 220 211 204 198 208 218 191 190 182 176 175 185 186 178 179 183 190 190 177 179 124 95 63 79 94 134 182 199 206 193 198 151 133 149 172 185 170 224 142 154 100
253 208 228 132 113 247 31 281 295 216 222 221 209 207 195 197 188 181 188 184 191 193 174 180 178 193 181 167 166 165 166 169 199 175 174 164 182 203 203 140 135 131 170 210 176 182 137 150 144
242 189 193 123 96 43 163 57 266 94 245 229 219 206 200 193 192 187 193 194 195 167 185 179 181 183 185 177 177 166 179 189 146 159 182 176 190 212 224 168 165 146 220 248 216 211 160 169 133
82 76 46 53 68 348 200 153 282 204 205 243 192 203 196 194 191 196 198 177 179 167 173 177 180 190 186 176 186 188 186 180 159 174 203 214 196 222 207 210 193 174 206 216 230 247 220 184 171
93 72 24 16 26 226 206 117 248 251 244 231 203 195 194 187 181 179 179 172 175 178 176 180 180 196 190 182 182 193 193 183 196 190 200 193 195 219 219 192 196 194 226 220 218 243 248 231 239
176 154 152 188 193 244 130 239 253 280 314 259 200 191 174 180 180 185 182 178 182 178 173 181 186 194 180 189 192 193 191 185 195 197 201 223 209 224 198 200 200 198 208 214 226 239 263 266 252
215 168 192 102 355 52 244 289 297 128 28 139 156 151 178 184 184 187 179 175 174 170 176 184 187 199 184 194 193 191 187 194 196 204 194 210 235 246 224 201 203 215 205 204 199 212 221 225 246
160 157 82 10 140 224 294 280 243 263 218 144 171 175 185 190 177 175 179 177 179 175 162 174 189 203 186 184 189 200 195 200 194 182 215 209 236 237 234 212 211 215 216 213 197 216 230 236 239
143 152 59 111 121 156 236 271 220 202 199 197 226 176 180 178 182 178 183 179 193 177 170 187 178 178 182 188 185 192 196 202 192 198 206 202 212 225 229 222 215 225 223 212 204 214 218 230 238
205 155 134 126 220 100 155 270 158 211 208 208 242 167 185 172 175 181 179 162 174 180 177 182 180 188 195 190 185 198 184 183 196 207 216 210 200 212 228 226 227 238 234 200 214 214 212 214 230